KC5ZJO-1 Weather Reports


Display with metric or nautical units.
time (UTC)temp
F
wind
direction
speed
MPH
gust
MPH
rain 1hr
in
rain 24hr
in
rain mn
in
humidity
%
barometer
mb
20210925013003 57 16 0.0 0.0 0.00 0.00 0.00 73 1018.0
20210925012503 57 16 0.0 0.0 0.00 0.00 0.00 72 1018.0
20210925012004 57 16 0.0 0.0 0.00 0.00 0.00 72 1018.1
20210925011503 57 16 0.0 0.0 0.00 0.00 0.00 71 1018.0
20210925011003 58 16 0.0 0.0 0.00 0.00 0.00 71 1018.0
20210925010503 58 16 0.0 0.0 0.00 0.00 0.00 70 1018.0
20210925010003 58 16 0.0 0.0 0.00 0.00 0.00 70 1017.9
20210925005502 58 16 0.0 0.0 0.00 0.00 0.00 69 1017.9
20210925005003 58 16 0.0 0.0 0.00 0.00 0.00 69 1017.9
20210925004502 59 16 0.0 0.0 0.00 0.00 0.00 68 1017.8
20210925004003 59 16 0.0 0.0 0.00 0.00 0.00 67 1017.9
20210925003502 59 16 0.0 0.0 0.00 0.00 0.00 67 1017.8
20210925003003 59 16 0.0 0.0 0.00 0.00 0.00 66 1017.8
20210925002503 60 16 0.0 0.0 0.00 0.00 0.00 65 1017.8
20210925002002 60 16 0.0 0.0 0.00 0.00 0.00 64 1017.8
20210925001503 61 16 0.0 0.0 0.00 0.00 0.00 64 1017.8
20210925001003 61 16 0.0 0.0 0.00 0.00 0.00 63 1017.8
20210925000503 61 16 0.0 0.0 0.00 0.00 0.00 61 1017.8
20210925000003 62 16 0.0 0.0 0.00 0.00 0.00 60 1017.8
20210924235502 62 16 0.0 0.0 0.00 0.00 0.00 59 1017.8
20210924235003 63 16 0.0 0.0 0.00 0.00 0.00 58 1017.8
20210924234502 64 16 0.0 0.0 0.00 0.00 0.00 57 1017.8
20210924234002 64 16 0.0 0.0 0.00 0.00 0.00 56 1017.8
20210924233502 65 16 0.0 0.0 0.00 0.00 0.00 55 1017.8
20210924233003 66 16 0.0 0.0 0.00 0.00 0.00 54 1017.7
20210924232503 66 16 0.0 0.0 0.00 0.00 0.00 53 1017.7
20210924232002 67 16 0.0 0.0 0.00 0.00 0.00 52 1017.8
20210924231502 67 16 0.0 0.0 0.00 0.00 0.00 51 1017.8
20210924231003 68 16 0.0 0.0 0.00 0.00 0.00 50 1017.8
20210924230502 69 16 0.0 0.0 0.00 0.00 0.00 49 1017.7
20210924230003 69 16 0.0 0.0 0.00 0.00 0.00 48 1017.7
20210924225502 70 16 0.0 0.0 0.00 0.00 0.00 46 1017.6
20210924225001 71 16 0.0 0.0 0.00 0.00 0.00 46 1017.6
20210924224503 71 16 0.0 0.0 0.00 0.00 0.00 44 1017.6
20210924224003 72 16 0.0 0.0 0.00 0.00 0.00 43 1017.6
20210924223502 72 16 0.0 0.0 0.00 0.00 0.00 43 1017.6
20210924223002 72 16 0.0 0.0 0.00 0.00 0.00 41 1017.7
20210924222502 72 16 0.0 0.0 0.00 0.00 0.00 40 1017.7
20210924222003 72 16 0.0 0.0 0.00 0.00 0.00 40 1017.6
20210924221502 73 16 0.0 0.0 0.00 0.00 0.00 40 1017.7
20210924221002 73 16 0.0 4.0 0.00 0.00 0.00 39 1017.7
20210924220503 73 20 1.0 4.0 0.00 0.00 0.00 38 1017.7
20210924220002 73 43 0.0 3.0 0.00 0.00 0.00 36 1017.6
20210924215504 74 49 0.0 3.0 0.00 0.00 0.00 37 1017.7
20210924215002 74 61 0.0 0.0 0.00 0.00 0.00 37 1017.7
20210924214503 74 61 0.0 2.0 0.00 0.00 0.00 37 1017.6
20210924214003 74 61 0.0 2.0 0.00 0.00 0.00 36 1017.6
20210924213503 74 61 0.0 0.0 0.00 0.00 0.00 36 1017.6
20210924213003 74 61 0.0 5.0 0.00 0.00 0.00 36 1017.6
20210924212502 74 52 1.0 5.0 0.00 0.00 0.00 37 1017.6
20210924212004 74 50 0.0 0.0 0.00 0.00 0.00 38 1017.7
20210924211502 74 50 0.0 4.0 0.00 0.00 0.00 37 1017.7
20210924211002 74 50 0.0 4.0 0.00 0.00 0.00 38 1017.6
20210924210502 74 11 0.0 4.0 0.00 0.00 0.00 38 1017.7
20210924210002 74 4 0.0 4.0 0.00 0.00 0.00 37 1017.7
20210924205503 74 4 0.0 5.0 0.00 0.00 0.00 34 1017.7
20210924205002 74 67 1.0 7.0 0.00 0.00 0.00 36 1017.6
20210924204503 74 110 3.0 7.0 0.00 0.00 0.00 35 1017.6
20210924204003 74 60 0.0 0.0 0.00 0.00 0.00 36 1017.6
20210924203503 74 60 0.0 5.0 0.00 0.00 0.00 37 1017.6
20210924203004 74 66 1.0 5.0 0.00 0.00 0.00 36 1017.7
20210924202503 74 132 1.0 5.0 0.00 0.00 0.00 33 1017.7
20210924202002 74 302 0.0 8.0 0.00 0.00 0.00 37 1017.7
20210924201504 74 9 1.0 8.0 0.00 0.00 0.00 37 1017.8
20210924201002 74 140 0.0 5.0 0.00 0.00 0.00 36 1017.8
20210924200503 74 137 0.0 5.0 0.00 0.00 0.00 37 1017.8
20210924200003 74 76 1.0 7.0 0.00 0.00 0.00 37 1017.8
20210924195504 74 358 0.0 7.0 0.00 0.00 0.00 37 1017.9
20210924195002 74 68 0.0 6.0 0.00 0.00 0.00 37 1017.9
20210924194502 74 11 0.0 6.0 0.00 0.00 0.00 39 1018.0
20210924194003 74 358 0.0 3.0 0.00 0.00 0.00 38 1017.9
20210924193502 74 53 0.0 0.0 0.00 0.00 0.00 39 1018.0
20210924193002 73 53 0.0 5.0 0.00 0.00 0.00 39 1018.0
20210924192502 74 53 0.0 9.0 0.00 0.00 0.00 40 1018.1
20210924192004 74 352 1.0 9.0 0.00 0.00 0.00 40 1018.1
20210924191502 74 6 2.0 8.0 0.00 0.00 0.00 40 1018.2
20210924191002 74 83 1.0 9.0 0.00 0.00 0.00 37 1018.3
20210924190503 74 337 2.0 9.0 0.00 0.00 0.00 41 1018.4
20210924190003 73 322 0.0 0.0 0.00 0.00 0.00 40 1018.5
20210924185502 73 322 0.0 2.0 0.00 0.00 0.00 39 1018.5
20210924185002 73 322 0.0 9.0 0.00 0.00 0.00 40 1018.6
20210924184503 74 1 4.0 9.0 0.00 0.00 0.00 40 1018.8
20210924184003 73 357 3.0 8.0 0.00 0.00 0.00 40 1018.9
20210924183503 73 208 0.0 9.0 0.00 0.00 0.00 38 1018.9
20210924183002 74 334 2.0 10.0 0.00 0.00 0.00 41 1019.1
20210924182502 73 8 3.0 10.0 0.00 0.00 0.00 40 1019.1
20210924182003 73 8 1.0 9.0 0.00 0.00 0.00 40 1019.2
20210924181502 73 10 3.0 12.0 0.00 0.00 0.00 41 1019.2
20210924181003 73 288 0.0 12.0 0.00 0.00 0.00 42 1019.3
20210924180502 73 343 3.0 7.0 0.00 0.00 0.00 43 1019.3
20210924180004 72 342 4.0 7.0 0.00 0.00 0.00 44 1019.3
20210924175502 72 101 0.0 6.0 0.00 0.00 0.00 43 1019.3
20210924175003 71 71 0.0 8.0 0.00 0.00 0.00 40 1019.4
20210924174502 72 54 2.0 8.0 0.00 0.00 0.00 41 1019.5
20210924174003 72 29 2.0 8.0 0.00 0.00 0.00 42 1019.6
20210924173503 72 323 0.0 6.0 0.00 0.00 0.00 44 1019.7
20210924173003 72 352 1.0 6.0 0.00 0.00 0.00 43 1019.8
20210924172503 72 55 1.0 8.0 0.00 0.00 0.00 42 1019.9
20210924172003 72 342 3.0 8.0 0.00 0.00 0.00 44 1019.9
20210924171503 72 112 0.0 11.0 0.00 0.00 0.00 42 1020.1
20210924171003 72 352 4.0 11.0 0.00 0.00 0.00 42 1020.1
20210924170503 72 351 4.0 10.0 0.00 0.00 0.00 43 1020.1
20210924170002 71 344 3.0 12.0 0.00 0.00 0.00 42 1020.2
20210924165504 71 342 7.0 12.0 0.00 0.00 0.00 43 1020.3
20210924165002 71 9 6.0 9.0 0.00 0.00 0.00 43 1020.3
20210924164503 71 342 5.0 12.0 0.00 0.00 0.00 44 1020.2
20210924164002 71 345 3.0 12.0 0.00 0.00 0.00 44 1020.4
20210924163503 70 9 5.0 9.0 0.00 0.00 0.00 45 1020.4
20210924163002 70 98 1.0 9.0 0.00 0.00 0.00 44 1020.5
20210924162503 70 108 2.0 9.0 0.00 0.00 0.00 45 1020.5
20210924162002 70 95 1.0 10.0 0.00 0.00 0.00 46 1020.5
20210924161503 70 1 5.0 10.0 0.00 0.00 0.00 46 1020.5
20210924161003 69 101 1.0 7.0 0.00 0.00 0.00 47 1020.5
20210924160502 69 115 0.0 9.0 0.00 0.00 0.00 47 1020.6
20210924160003 69 99 2.0 11.0 0.00 0.00 0.00 46 1020.6
20210924155503 69 72 1.0 11.0 0.00 0.00 0.00 47 1020.7
20210924155004 69 11 4.0 10.0 0.00 0.00 0.00 49 1020.7
20210924154504 69 7 2.0 10.0 0.00 0.00 0.00 50 1020.8
20210924154003 69 73 1.0 6.0 0.00 0.00 0.00 51 1020.9
20210924153503 68 102 1.0 7.0 0.00 0.00 0.00 51 1020.8
20210924153003 68 4 1.0 7.0 0.00 0.00 0.00 53 1020.9
20210924152504 69 8 0.0 7.0 0.00 0.00 0.00 53 1020.9
20210924152004 68 21 2.0 7.0 0.00 0.00 0.00 56 1021.0
20210924151503 68 358 1.0 7.0 0.00 0.00 0.00 58 1020.9
20210924151003 68 330 2.0 7.0 0.00 0.00 0.00 59 1020.8
20210924150504 67 46 2.0 6.0 0.00 0.00 0.00 60 1020.9
20210924150003 67 6 2.0 8.0 0.00 0.00 0.00 62 1021.0
20210924145502 67 13 1.0 8.0 0.00 0.00 0.00 63 1021.0
20210924145005 66 352 2.0 8.0 0.00 0.00 0.00 64 1020.9
20210924144503 66 19 0.0 7.0 0.00 0.00 0.00 65 1020.9
20210924144004 66 13 1.0 7.0 0.00 0.00 0.00 68 1020.8
20210924143503 65 351 0.0 7.0 0.00 0.00 0.00 68 1020.7
20210924143003 64 335 4.0 7.0 0.00 0.00 0.00 67 1020.8
20210924142503 64 19 0.0 0.0 0.00 0.00 0.00 69 1020.8
20210924142004 63 19 0.0 0.0 0.00 0.00 0.00 74 1020.8
20210924141503 62 19 0.0 0.0 0.00 0.00 0.00 73 1020.7
20210924141003 62 19 0.0 0.0 0.00 0.00 0.00 76 1020.6
20210924140503 61 19 0.0 0.0 0.00 0.00 0.00 80 1020.7
20210924140002 60 19 0.0 0.0 0.00 0.00 0.00 83 1020.7
20210924135504 59 19 0.0 0.0 0.00 0.00 0.00 84 1020.7
20210924135003 59 19 0.0 0.0 0.00 0.00 0.00 85 1020.6
20210924134503 57 19 0.0 0.0 0.00 0.00 0.00 88 1020.5
20210924134002 56 19 0.0 0.0 0.00 0.00 0.00 91 1020.6
20210924133503 55 19 0.0 0.0 0.00 0.00 0.00 93 1020.5
20210924133003 55 19 0.0 0.0 0.00 0.00 0.00 94 1020.5
20210924132503 54 19 0.0 0.0 0.00 0.00 0.00 95 1020.6
20210924132003 53 19 0.0 0.0 0.00 0.00 0.00 95 1020.5
20210924131503 53 19 0.0 0.0 0.00 0.00 0.00 95 1020.4
20210924131003 52 19 0.0 0.0 0.00 0.00 0.00 95 1020.5
20210924130503 52 19 0.0 0.0 0.00 0.00 0.00 95 1020.5
20210924130004 51 19 0.0 0.0 0.00 0.00 0.00 95 1020.5
20210924125503 51 19 0.0 3.0 0.00 0.00 0.00 95 1020.6
20210924125003 50 19 0.0 3.0 0.00 0.00 0.00 95 1020.6
20210924124504 50 16 0.0 0.0 0.00 0.00 0.00 95 1020.5
20210924124003 50 16 0.0 0.0 0.00 0.00 0.00 95 1020.4
20210924123503 50 16 0.0 0.0 0.00 0.00 0.00 95 1020.3
20210924123004 49 16 0.0 0.0 0.00 0.00 0.00 95 1020.3
20210924122504 49 16 0.0 0.0 0.00 0.00 0.00 95 1020.3
20210924122003 49 16 0.0 0.0 0.00 0.00 0.00 94 1020.2
20210924121503 49 16 0.0 0.0 0.00 0.00 0.00 94 1020.2
20210924121003 49 16 0.0 0.0 0.00 0.00 0.00 94 1020.2
20210924120504 49 16 0.0 0.0 0.00 0.00 0.00 94 1020.1
20210924120003 49 16 0.0 0.0 0.00 0.00 0.00 94 1020.1
20210924115503 49 16 0.0 0.0 0.00 0.00 0.00 94 1020.1
20210924115003 48 16 0.0 0.0 0.00 0.00 0.00 94 1020.1
20210924114503 48 16 0.0 0.0 0.00 0.00 0.00 94 1019.9
20210924114002 48 16 0.0 0.0 0.00 0.00 0.00 94 1019.8
20210924113504 48 16 0.0 0.0 0.00 0.00 0.00 93 1019.7
20210924113002 48 16 0.0 0.0 0.00 0.00 0.00 93 1019.8
20210924112503 48 16 0.0 0.0 0.00 0.00 0.00 93 1019.7
20210924112002 48 16 0.0 0.0 0.00 0.00 0.00 93 1019.8
20210924111503 48 16 0.0 0.0 0.00 0.00 0.00 93 1019.7
20210924111002 48 16 0.0 0.0 0.00 0.00 0.00 93 1019.7
20210924110503 48 16 0.0 0.0 0.00 0.00 0.00 93 1019.7
20210924110003 49 16 0.0 0.0 0.00 0.00 0.00 93 1019.6
20210924105502 49 16 0.0 0.0 0.00 0.00 0.00 93 1019.5
20210924105003 49 16 0.0 0.0 0.00 0.00 0.00 93 1019.5
20210924104502 49 16 0.0 0.0 0.00 0.00 0.00 93 1019.5
20210924104003 49 16 0.0 0.0 0.00 0.00 0.00 93 1019.4
20210924103502 49 16 0.0 0.0 0.00 0.00 0.00 92 1019.4
20210924103002 49 16 0.0 0.0 0.00 0.00 0.00 92 1019.3
20210924102502 49 16 0.0 0.0 0.00 0.00 0.00 92 1019.2
20210924102003 49 16 0.0 0.0 0.00 0.00 0.00 92 1019.2
20210924101502 49 16 0.0 0.0 0.00 0.00 0.00 92 1019.1
20210924101002 49 16 0.0 0.0 0.00 0.00 0.00 92 1019.2
20210924100502 49 16 0.0 0.0 0.00 0.00 0.00 92 1019.1
20210924100003 49 16 0.0 0.0 0.00 0.00 0.00 92 1019.1
20210924095502 49 16 0.0 0.0 0.00 0.00 0.00 92 1019.0
20210924095002 49 16 0.0 0.0 0.00 0.00 0.00 92 1018.9
20210924094502 49 16 0.0 0.0 0.00 0.00 0.00 91 1018.9
20210924094002 49 16 0.0 0.0 0.00 0.00 0.00 91 1018.9
20210924093502 49 16 0.0 0.0 0.00 0.00 0.00 91 1018.8
20210924093002 49 16 0.0 0.0 0.00 0.00 0.00 91 1018.7
20210924084002 50 16 0.0 0.0 0.00 0.00 0.00 90 1018.6
20210924083503 50 16 0.0 0.0 0.00 0.00 0.00 90 1018.5
20210924083002 50 16 0.0 0.0 0.00 0.00 0.00 90 1018.5
20210924082502 50 16 0.0 0.0 0.00 0.00 0.00 89 1018.5
20210924082002 50 16 0.0 0.0 0.00 0.00 0.00 89 1018.4
20210924081503 50 16 0.0 0.0 0.00 0.00 0.00 89 1018.3
20210924081003 50 16 0.0 0.0 0.00 0.00 0.00 89 1018.4
20210924080502 50 16 0.0 0.0 0.00 0.00 0.00 89 1018.4
20210924080002 50 16 0.0 0.0 0.00 0.00 0.00 89 1018.4
20210924075503 50 16 0.0 0.0 0.00 0.00 0.00 89 1018.4
20210924075002 51 16 0.0 0.0 0.00 0.00 0.00 88 1018.5
20210924074502 51 16 0.0 0.0 0.00 0.00 0.00 88 1018.4
20210924074002 51 16 0.0 0.0 0.00 0.00 0.00 88 1018.5
20210924073502 51 16 0.0 0.0 0.00 0.00 0.00 88 1018.4
20210924073002 51 16 0.0 0.0 0.00 0.00 0.00 88 1018.4
20210924072502 51 16 0.0 0.0 0.00 0.00 0.00 88 1018.4
20210924072003 51 16 0.0 0.0 0.00 0.00 0.00 88 1018.4
20210924071503 51 16 0.0 0.0 0.00 0.00 0.00 87 1018.3
20210924071002 51 16 0.0 0.0 0.00 0.00 0.00 87 1018.3
20210924070503 51 16 0.0 0.0 0.00 0.00 0.00 87 1018.2
20210924070002 51 16 0.0 0.0 0.00 0.00 0.00 87 1018.3
20210924065502 51 16 0.0 0.0 0.00 0.00 0.00 87 1018.3
20210924065002 51 16 0.0 0.0 0.00 0.00 0.00 87 1018.3
20210924064503 51 16 0.0 0.0 0.00 0.00 0.00 87 1018.4
20210924064003 51 16 0.0 0.0 0.00 0.00 0.00 87 1018.3
20210924063503 51 16 0.0 0.0 0.00 0.00 0.00 86 1018.4
20210924063002 51 16 0.0 0.0 0.00 0.00 0.00 86 1018.3
20210924062503 52 16 0.0 0.0 0.00 0.00 0.00 86 1018.3
20210924062003 52 16 0.0 0.0 0.00 0.00 0.00 86 1018.3
20210924061503 52 16 0.0 0.0 0.00 0.00 0.00 86 1018.4
20210924061002 52 16 0.0 0.0 0.00 0.00 0.00 86 1018.4
20210924060502 52 16 0.0 0.0 0.00 0.00 0.00 86 1018.4
20210924060002 52 16 0.0 0.0 0.00 0.00 0.00 85 1018.5
20210924055502 52 16 0.0 0.0 0.00 0.00 0.00 85 1018.5
20210924055002 52 16 0.0 0.0 0.00 0.00 0.00 85 1018.5
20210924054503 52 16 0.0 0.0 0.00 0.00 0.00 85 1018.5
20210924054003 52 16 0.0 0.0 0.00 0.00 0.00 84 1018.5
20210924053503 52 16 0.0 0.0 0.00 0.00 0.00 84 1018.5
20210924053002 52 16 0.0 0.0 0.00 0.00 0.00 84 1018.6
20210924052502 53 16 0.0 0.0 0.00 0.00 0.00 83 1018.7
20210924052002 53 16 0.0 0.0 0.00 0.00 0.00 83 1018.7
20210924051502 53 16 0.0 0.0 0.00 0.00 0.00 83 1018.8
20210924050502 53 16 0.0 0.0 0.00 0.00 0.00 83 1018.8
20210924050003 53 16 0.0 0.0 0.00 0.00 0.00 83 1018.8
20210924045502 53 16 0.0 0.0 0.00 0.00 0.00 83 1018.9
20210924045003 53 16 0.0 0.0 0.00 0.00 0.00 83 1018.9
20210924044503 53 16 0.0 0.0 0.00 0.00 0.00 83 1018.9
20210924044002 53 16 0.0 0.0 0.00 0.00 0.00 83 1018.8
20210924043503 53 16 0.0 0.0 0.00 0.00 0.00 83 1018.8
20210924043002 53 16 0.0 0.0 0.00 0.00 0.00 83 1018.8
20210924042503 53 16 0.0 0.0 0.00 0.00 0.00 83 1018.8
20210924042003 53 16 0.0 0.0 0.00 0.00 0.00 83 1018.8
20210924041503 53 16 0.0 0.0 0.00 0.00 0.00 82 1018.8
20210924041002 53 16 0.0 0.0 0.00 0.00 0.00 82 1018.8
20210924040503 53 16 0.0 0.0 0.00 0.00 0.00 82 1018.7
20210924040003 53 16 0.0 0.0 0.00 0.00 0.00 82 1018.5
20210924035502 53 16 0.0 0.0 0.00 0.00 0.00 81 1018.5
20210924035003 53 16 0.0 0.0 0.00 0.00 0.00 81 1018.4
20210924034503 53 16 0.0 0.0 0.00 0.00 0.00 81 1018.5
20210924034003 54 16 0.0 0.0 0.00 0.00 0.00 81 1018.4
20210924033503 54 16 0.0 0.0 0.00 0.00 0.00 81 1018.4
20210924033003 54 16 0.0 0.0 0.00 0.00 0.00 80 1018.4
20210924032502 54 16 0.0 0.0 0.00 0.00 0.00 80 1018.3
20210924032003 54 16 0.0 0.0 0.00 0.00 0.00 80 1018.3
20210924031503 54 16 0.0 0.0 0.00 0.00 0.00 80 1018.3
20210924031003 54 16 0.0 0.0 0.00 0.00 0.00 80 1018.2
20210924030502 54 16 0.0 0.0 0.00 0.00 0.00 80 1018.1
20210924030003 54 16 0.0 0.0 0.00 0.00 0.00 80 1018.1
20210924025502 54 16 0.0 0.0 0.00 0.00 0.00 79 1018.1
20210924025004 54 16 0.0 0.0 0.00 0.00 0.00 79 1018.0
20210924024502 54 16 0.0 0.0 0.00 0.00 0.00 79 1018.0
20210924024003 54 16 0.0 0.0 0.00 0.00 0.00 79 1018.0
20210924023502 54 16 0.0 0.0 0.00 0.00 0.00 78 1017.9
20210924023003 54 16 0.0 0.0 0.00 0.00 0.00 78 1017.9
20210924022503 54 16 0.0 0.0 0.00 0.00 0.00 78 1018.0
20210924022003 54 16 0.0 0.0 0.00 0.00 0.00 77 1017.9
20210924021503 54 16 0.0 0.0 0.00 0.00 0.00 77 1017.9
20210924021004 55 16 0.0 0.0 0.00 0.00 0.00 76 1017.9
20210924020503 55 16 0.0 0.0 0.00 0.00 0.00 76 1017.9
20210924020003 55 16 0.0 0.0 0.00 0.00 0.00 75 1017.9
20210924015502 55 16 0.0 0.0 0.00 0.00 0.00 75 1017.8
20210924015003 55 16 0.0 0.0 0.00 0.00 0.00 74 1017.8
20210924014504 55 16 0.0 0.0 0.00 0.00 0.00 74 1017.9
20210924014003 55 16 0.0 0.0 0.00 0.00 0.00 73 1017.9
20210924013504 55 16 0.0 0.0 0.00 0.00 0.00 73 1017.9